When you browse on this site, cookies collect data to enhance your experience and personalize the content and advertising you see.
Visit our Privacy Policy to learn more. By continuing to use the site, you agree to this use of cookies and data.
  • Em Portugal
  • Lista de países
  • Para 7 dias
  • Temperatura da água
  • Mapa do tempo
  • Widgets de tempo
  • user-avatar
    Iniciar Sessão

    Previsão horária em Belyakovka

    Hoje, 6 Junho, Sábado

    Tempo Temperatura Precipitação Vento Pressão Humidade
    00:00 +12°C° 0 mm 1 m/s 750 mmHg 74%
    01:00 +11°C° 0 mm 1 m/s 750 mmHg 78%
    02:00 +11°C° 0 mm 1 m/s 750 mmHg 78%
    03:00 +11°C° 0 mm 1 m/s 750 mmHg 79%
    04:00 +12°C° 0 mm 1 m/s 750 mmHg 81%
    05:00 +14°C° 0 mm 1 m/s 750 mmHg 74%
    06:00 +16°C° 0 mm 1 m/s 750 mmHg 68%
    07:00 +20°C° 0 mm 1 m/s 750 mmHg 61%
    08:00 +21°C° 0 mm 1 m/s 750 mmHg 55%
    09:00 +23°C° 0 mm 2 m/s 750 mmHg 50%
    10:00 +24°C° 0 mm 2 m/s 750 mmHg 44%
    11:00 +25°C° 0 mm 2 m/s 750 mmHg 41%
    12:00 +25°C° 0 mm 2 m/s 750 mmHg 38%
    13:00 +26°C° 0 mm 2 m/s 749 mmHg 35%
    14:00 +26°C° 0 mm 2 m/s 749 mmHg 35%
    15:00 +26°C° 0 mm 2 m/s 749 mmHg 35%
    16:00 +26°C° 0 mm 2 m/s 749 mmHg 35%
    17:00 +25°C° 0 mm 2 m/s 749 mmHg 43%
    18:00 +23°C° 0 mm 2 m/s 749 mmHg 50%
    19:00 +21°C° 0 mm 2 m/s 748 mmHg 57%
    20:00 +19°C° 0 mm 2 m/s 749 mmHg 61%
    21:00 +17°C° 0 mm 2 m/s 749 mmHg 64%
    22:00 +14°C° 0 mm 3 m/s 749 mmHg 68%
    23:00 +15°C° 0 mm 2 m/s 749 mmHg 70%

    Amanhã, 7 Junho, Domingo

    Tempo Temperatura Precipitação Vento Pressão Humidade
    00:00 +14°C° 0 mm 2 m/s 749 mmHg 73%
    01:00 +13°C° 0 mm 2 m/s 749 mmHg 75%
    02:00 +13°C° 0 mm 2 m/s 749 mmHg 75%
    03:00 +13°C° 0 mm 2 m/s 750 mmHg 74%
    04:00 +13°C° 0 mm 2 m/s 750 mmHg 74%
    05:00 +15°C° 0 mm 2 m/s 750 mmHg 68%
    06:00 +17°C° 0 mm 2 m/s 750 mmHg 61%
    07:00 +19°C° 0 mm 2 m/s 750 mmHg 55%
    08:00 +21°C° 0 mm 2 m/s 750 mmHg 48%
    09:00 +24°C° 0 mm 2 m/s 750 mmHg 40%
    10:00 +26°C° 0 mm 3 m/s 750 mmHg 33%
    11:00 +26°C° 0 mm 3 m/s 750 mmHg 32%
    12:00 +27°C° 0 mm 3 m/s 750 mmHg 30%
    13:00 +28°C° 0 mm 3 m/s 750 mmHg 28%
    14:00 +28°C° 0 mm 3 m/s 749 mmHg 29%
    15:00 +28°C° 0 mm 3 m/s 749 mmHg 30%
    16:00 +28°C° 0 mm 2 m/s 749 mmHg 30%
    17:00 +27°C° 0 mm 2 m/s 749 mmHg 39%
    18:00 +25°C° 0 mm 2 m/s 749 mmHg 47%
    19:00 +24°C° 0 mm 2 m/s 749 mmHg 55%
    20:00 +21°C° 0 mm 2 m/s 749 mmHg 60%
    21:00 +19°C° 0 mm 2 m/s 749 mmHg 64%
    22:00 +17°C° 0 mm 2 m/s 749 mmHg 69%
    23:00 +16°C° 0 mm 1 m/s 749 mmHg 71%

    Depois de amanhã, 8 Junho, Segunda-feira

    Tempo Temperatura Precipitação Vento Pressão Humidade
    00:00 +16°C° 0 mm 1 m/s 750 mmHg 73%
    01:00 +16°C° 0 mm 1 m/s 750 mmHg 75%
    02:00 +15°C° 0 mm 1 m/s 750 mmHg 76%
    03:00 +15°C° 0 mm 1 m/s 750 mmHg 76%
    04:00 +15°C° 0 mm 1 m/s 750 mmHg 77%
    05:00 +18°C° 0 mm 1 m/s 750 mmHg 71%
    06:00 +21°C° 0 mm 1 m/s 751 mmHg 64%
    07:00 +23°C° 0 mm 1 m/s 751 mmHg 58%
    08:00 +25°C° 0 mm 1 m/s 751 mmHg 51%
    09:00 +26°C° 0 mm 1 m/s 751 mmHg 44%
    10:00 +28°C° 0 mm 1 m/s 751 mmHg 37%
    11:00 +29°C° 0 mm 1 m/s 751 mmHg 35%
    12:00 +29°C° 0 mm 1 m/s 751 mmHg 33%
    13:00 +30°C° 0 mm 1 m/s 751 mmHg 31%
    14:00 +30°C° 0 mm 1 m/s 751 mmHg 32%
    15:00 +29°C° 0 mm 1 m/s 751 mmHg 32%
    16:00 +29°C° 0 mm 2 m/s 751 mmHg 33%
    17:00 +28°C° 0 mm 1 m/s 751 mmHg 40%
    18:00 +27°C° 0 mm 1 m/s 750 mmHg 47%
    19:00 +25°C° 0 mm 1 m/s 750 mmHg 54%
    20:00 +23°C° 0 mm 1 m/s 751 mmHg 57%
    21:00 +21°C° 0 mm 1 m/s 751 mmHg 60%
    22:00 +20°C° 0 mm 1 m/s 751 mmHg 63%
    23:00 +19°C° 0 mm 1 m/s 751 mmHg 66%

    9 Junho, Terça-feira

    Tempo Temperatura Precipitação Vento Pressão Humidade
    00:00 +18°C° 0 mm 1 m/s 751 mmHg 70%
    01:00 +17°C° 0 mm 2 m/s 752 mmHg 73%
    02:00 +16°C° 0 mm 1 m/s 752 mmHg 74%
    03:00 +16°C° 0 mm 1 m/s 752 mmHg 76%
    04:00 +16°C° 0 mm 1 m/s 752 mmHg 78%
    05:00 +18°C° 0 mm 2 m/s 752 mmHg 72%
    06:00 +20°C° 0 mm 2 m/s 753 mmHg 66%
    07:00 +23°C° 0 mm 2 m/s 753 mmHg 60%
    08:00 +25°C° 0 mm 2 m/s 753 mmHg 54%
    09:00 +27°C° 0 mm 2 m/s 753 mmHg 47%
    10:00 +28°C° 0 mm 2 m/s 753 mmHg 41%
    11:00 +29°C° 0 mm 2 m/s 753 mmHg 39%
    12:00 +29°C° 0 mm 2 m/s 753 mmHg 37%
    13:00 +30°C° 0 mm 2 m/s 753 mmHg 35%
    14:00 +30°C° 0 mm 2 m/s 752 mmHg 35%
    15:00 +30°C° 0 mm 2 m/s 752 mmHg 35%
    16:00 +30°C° 0 mm 2 m/s 752 mmHg 34%
    17:00 +29°C° 0 mm 1 m/s 752 mmHg 41%
    18:00 +27°C° 0 mm 1 m/s 752 mmHg 48%
    19:00 +26°C° 0 mm 1 m/s 752 mmHg 55%
    20:00 +24°C° 0 mm 1 m/s 752 mmHg 59%
    21:00 +23°C° 0 mm 1 m/s 752 mmHg 63%
    22:00 +21°C° 0 mm 1 m/s 752 mmHg 67%
    23:00 +20°C° 0 mm 1 m/s 752 mmHg 69%

    10 Junho, Quarta-feira

    Tempo Temperatura Precipitação Vento Pressão Humidade
    00:00 +19°C° 0 mm 1 m/s 752 mmHg 72%
    01:00 +19°C° 0 mm 1 m/s 752 mmHg 74%
    02:00 +17°C° 0 mm 2 m/s 752 mmHg 73%
    03:00 +17°C° 0 mm 2 m/s 752 mmHg 72%
    04:00 +17°C° 0 mm 2 m/s 752 mmHg 71%
    05:00 +19°C° 0 mm 2 m/s 753 mmHg 66%
    06:00 +21°C° 0 mm 2 m/s 753 mmHg 60%
    07:00 +24°C° 0 mm 2 m/s 753 mmHg 55%
    08:00 +25°C° 0 mm 2 m/s 752 mmHg 49%
    09:00 +27°C° 0 mm 2 m/s 752 mmHg 44%
    10:00 +28°C° 0 mm 2 m/s 752 mmHg 38%
    11:00 +29°C° 0 mm 2 m/s 752 mmHg 37%
    12:00 +30°C° 0 mm 3 m/s 752 mmHg 36%
    13:00 +30°C° 0 mm 3 m/s 752 mmHg 35%
    14:00 +30°C° 0 mm 3 m/s 751 mmHg 36%
    15:00 +30°C° 0 mm 3 m/s 751 mmHg 37%
    16:00 +30°C° 0 mm 3 m/s 751 mmHg 38%
    17:00 +29°C° 0 mm 3 m/s 751 mmHg 44%
    18:00 +27°C° 0 mm 2 m/s 750 mmHg 51%
    19:00 +26°C° 0 mm 2 m/s 750 mmHg 57%
    20:00 +24°C° 0 mm 2 m/s 750 mmHg 61%
    21:00 +23°C° 0 mm 2 m/s 750 mmHg 64%
    22:00 +20°C° 0 mm 2 m/s 750 mmHg 68%
    23:00 +19°C° 0 mm 2 m/s 750 mmHg 70%

    11 Junho, Quinta-feira

    Tempo Temperatura Precipitação Vento Pressão Humidade
    00:00 +19°C° 0 mm 2 m/s 750 mmHg 73%
    01:00 +18°C° 0 mm 2 m/s 750 mmHg 76%
    02:00 +18°C° 0 mm 2 m/s 750 mmHg 76%
    03:00 +18°C° 0 mm 2 m/s 750 mmHg 77%
    04:00 +17°C° 0 mm 2 m/s 750 mmHg 77%
    05:00 +20°C° 0 mm 2 m/s 750 mmHg 71%
    06:00 +23°C° 0 mm 2 m/s 750 mmHg 65%
    07:00 +25°C° 0 mm 2 m/s 750 mmHg 59%
    08:00 +26°C° 0 mm 2 m/s 750 mmHg 52%
    09:00 +28°C° 0 mm 3 m/s 749 mmHg 44%
    10:00 +29°C° 0 mm 3 m/s 749 mmHg 37%
    11:00 +30°C° 0 mm 3 m/s 749 mmHg 36%
    12:00 +30°C° 0 mm 3 m/s 748 mmHg 35%
    13:00 +31°C° 0 mm 3 m/s 748 mmHg 34%
    14:00 +30°C° 0 mm 4 m/s 747 mmHg 39%
    15:00 +29°C° 0 mm 4 m/s 747 mmHg 44%
    16:00 +27°C° 0 mm 4 m/s 746 mmHg 49%
    17:00 +26°C° 0.5 mm 3 m/s 746 mmHg 58%
    18:00 +24°C° 0.5 mm 2 m/s 746 mmHg 67%
    19:00 +22°C° 0.5 mm 1 m/s 745 mmHg 77%
    20:00 +20°C° 0.3 mm 2 m/s 745 mmHg 80%
    21:00 +20°C° 0.3 mm 2 m/s 745 mmHg 84%
    22:00 +19°C° 0.3 mm 3 m/s 744 mmHg 87%
    23:00 +18°C° 0.1 mm 3 m/s 744 mmHg 88%
    Mostrar mais